STARLINK-37799, 69317

Orbit data source: Space-Track

STARLINK-37799, 69317 is a payload satellite owned by SpaceX/Seattle (US) in SSO that was launched on Sat, 30 May 2026 UTC via an FALCON 9 launch vehicle from the Air Force Western Test Range (AFWTR). Payload-class satellites include a variety of spacecraft equipped with specific instruments for various scientific and technological missions. These include communications satellites like Starlink; space stations such as the ISS; scientific satellites like the Hubble; Earth observation satellites from companies like Planet Labs, Umbra, and HawkEye 360; GPS; miniature CubeSats for education and research; and military/defense satellites.

Loading next visibility...
Identifier
69317, 2026-119X
Orbit
SSO
Country
Flag of USUS
Related business
Manufacturer
SpaceX/Seattle
Mission
Operational spacecraft
Bus & Motor
STARLINK V2MO, Unknown motor
Mass
575 kg wet, ~530 kg dry
Launch date (UTC)
2026-05-30 (3 weeks ago)
Launch vehicle
FALCON 9
Launch site
Air Force Western Test Range (AFWTR)
Object type
Payload
Rocket body
Debris
Shape & HBR
Unknown
Radar Cross Section
Large (>1 m²)

Expand to show TLE details & history
Last TLE update: 10 hours ago

TLE from 10 hours ago
0 STARLINK-37799
1 69317U 26119X   26171.41668980 -.02527102  00000-0 -34717-1 0  9998
2 69317  97.2891 197.4268 0001946 100.9159  99.3947 15.60960158  4518
Epoch: 2026-06-20T10:00Z
TLE epoch observation values (Epoch: 2026-06-20T10:00:01.998Z)
Latitude
-20.40013°
Longitude
-43.92446°
Altitude
393.03 km
Speed
7.673 km/s
True Right ascension
00h 58m 51s
True Declination
-20° 16' 55"
Sunlit
Object was in daylight at epoch
Visualization orbit readout
Latitude
Unknown
Longitude
Unknown
Altitude
Unknown
Speed
Unknown
Apparent Right ascension
Unknown
Apparent Declination
Unknown
Sunlit
N/A
Visualization observer readout
Local Sidereal Time
07:14:58
Azimuth
Unknown
Elevation
Unknown
Doppler factor
Unknown
Orbital elements
Apogee altitude
383.104 km
Perigee altitude
380.473 km
Semi-major axis
6,759.926 km
Eccentricity
0.00019
Inclination
97.2891°
RAAN
197.4268°
Arg. of periapsis
100.9159°
True anomaly
99.4167°
Mean anomaly
99.3947°
Eccentric anomaly
99.4057°
Mean motion
3.90508 °/min
Orbital period
92.19 mins
BSTAR
-0.034717
Loading maneuver chart data...
Computing Atmospheric mass density...
Loading historical data...
Loading historical data...
Loading historical data...
Loading historical data...
Loading historical data...
Loading historical data...
Loading historical data...

Documentation

Showing up to 5 results
|